Temp
-21 -21 -21 -22 -21 -20 -20 -20 -18 -16 -15 -14 -13 -12 -11 -11 -11 -10 -10 -10 -9 -9 -9 -9 -9 -9 -9 -8 -8 -8 -8 -9 -9 -9 -10 -11 -10 -9 -10 -9 -9 -9 -9 -9
-21 -22 -22 -22 -21 -21 -21 -22 -21 -18 -16 -15 -14 -13 -11 -11 -11 -11 -10 -10 -9 -9 -9 -9 -9 -9 -9 -9 -9 -9 -9 -9 -10 -10 -10 -9 -10 -10 -10 -9 -9 -8 -9 -9
-21 -21 -21 -21 -21 -21 -20 -20 -19 -20 -17 -16 -15 -13 -12 -11 -11 -11 -10 -10 -9 -9 -9 -9 -9 -9 -9 -9 -8 -8 -9 -8 -8 -9 -10 -10 -10 -9 -10 -10 -9 -9 -8 -8
-20 -20 -20 -20 -20 -20 -20 -19 -18 -18 -19 -17 -15 -13 -11 -12 -11 -11 -10 -10 -9 -9 -9 -9 -10 -10 -9 -9 -8 -8 -8 -8 -8 -9 -10 -10 -10 -10 -10 -9 -8 -8 -8 -8
-20 -20 -20 -21 -20 -19 -19 -19 -18 -18 -18 -17 -15 -15 -12 -12 -11 -11 -10 -10 -9 -9 -9 -9 -10 -10 -10 -9 -9 -8 -9 -9 -10 -10 -10 -10 -10 -9 -8 -8 -8 -8 -8 -7
-19 -19 -19 -20 -19 -19 -19 -18 -17 -18 -18 -18 -17 -14 -14 -12 -10 -10 -10 -10 -9 -9 -9 -9 -10 -10 -10 -9 -9 -9 -10 -10 -9 -9 -10 -10 -9 -9 -8 -8 -8 -8 -8 -7
-19 -19 -19 -19 -18 -18 -19 -18 -19 -19 -18 -17 -16 -15 -14 -11 -11 -11 -10 -10 -9 -9 -9 -9 -10 -10 -10 -9 -9 -10 -10 -10 -10 -10 -10 -9 -9 -9 -9 -8 -8 -7 -7 -7
-19 -19 -18 -19 -18 -18 -18 -17 -17 -17 -17 -16 -15 -14 -14 -12 -12 -11 -10 -10 -10 -10 -9 -10 -10 -10 -10 -10 -10 -10 -10 -10 -10 -9 -9 -9 -9 -9 -8 -9 -8 -8 -8 -7
-18 -19 -18 -18 -18 -18 -18 -17 -17 -16 -17 -16 -14 -15 -12 -12 -11 -11 -10 -10 -10 -10 -10 -10 -10 -10 -10 -10 -10 -10 -10 -9 -9 -9 -10 -9 -9 -9 -8 -8 -8 -8 -8 -8
-18 -18 -18 -18 -18 -18 -18 -18 -18 -17 -17 -15 -15 -13 -14 -12 -12 -11 -11 -10 -10 -10 -10 -10 -11 -10 -10 -10 -10 -9 -9 -9 -9 -10 -9 -9 -9 -9 -8 -8 -8 -9 -9 -9
-18 -18 -18 -18 -18 -18 -19 -19 -17 -17 -16 -15 -16 -16 -12 -12 -12 -12 -11 -11 -11 -10 -10 -10 -11 -10 -10 -10 -10 -10 -10 -9 -10 -10 -9 -9 -9 -9 -9 -9 -9 -9 -10 -10
-18 -18 -18 -18 -19 -19 -19 -18 -18 -16 -17 -15 -15 -15 -13 -13 -12 -12 -12 -11 -10 -10 -10 -10 -10 -10 -10 -10 -10 -10 -10 -10 -10 -9 -9 -9 -9 -9 -9 -9 -9 -10 -9 -11
-18 -18 -18 -18 -18 -17 -18 -18 -17 -16 -17 -17 -16 -15 -13 -13 -12 -12 -12 -12 -11 -11 -11 -11 -10 -10 -10 -10 -10 -10 -10 -10 -10 -10 -9 -9 -9 -9 -9 -10 -10 -11 -10 -11
-17 -17 -18 -18 -19 -18 -17 -17 -17 -17 -18 -17 -16 -15 -14 -13 -13 -12 -12 -12 -12 -11 -11 -11 -11 -11 -10 -10 -10 -10 -10 -10 -10 -10 -10 -9 -9 -9 -10 -11 -10 -11 -11 -11
-18 -17 -17 -17 -17 -17 -18 -17 -17 -17 -18 -17 -17 -15 -14 -14 -13 -13 -12 -12 -12 -12 -12 -12 -11 -11 -11 -11 -11 -11 -11 -11 -10 -10 -10 -10 -10 -10 -11 -11 -11 -10 -11 -11
-17 -17 -17 -17 -17 -17 -17 -18 -17 -17 -16 -16 -17 -16 -15 -14 -13 -13 -13 -13 -12 -12 -12 -11 -11 -11 -11 -11 -12 -11 -11 -11 -11 -11 -11 -11 -10 -10 -11 -11 -11 -11 -12 -11
-17 -17 -17 -17 -17 -17 -17 -17 -17 -16 -17 -17 -17 -16 -15 -15 -14 -13 -13 -12 -12 -12 -12 -12 -11 -11 -12 -12 -12 -12 -11 -11 -11 -11 -12 -12 -11 -11 -12 -12 -12 -12 -12 -12
-17 -17 -17 -17 -17 -17 -17 -17 -17 -17 -17 -16 -16 -16 -15 -15 -14 -14 -13 -13 -12 -12 -12 -12 -12 -12 -12 -12 -11 -12 -12 -12 -13 -13 -13 -12 -12 -12 -11 -11 -12 -12 -13 -13
-17 -17 -17 -17 -17 -17 -17 -17 -16 -16 -16 -15 -16 -15 -15 -14 -14 -13 -13 -13 -13 -12 -12 -12 -12 -13 -12 -12 -13 -13 -13 -13 -13 -13 -13 -13 -13 -12 -12 -13 -13 -14 -13 -13
-18 -17 -17 -17 -17 -17 -17 -17 -17 -17 -16 -17 -16 -16 -15 -15 -14 -14 -13 -13 -12 -12 -12 -12 -12 -12 -12 -13 -13 -13 -13 -13 -13 -13 -13 -14 -12 -12 -13 -12 -13 -14 -14 -13
-17 -17 -17 -16 -17 -17 -17 -17 -17 -16 -17 -17 -17 -16 -15 -15 -14 -14 -14 -13 -13 -13 -13 -12 -12 -12 -13 -13 -13 -13 -13 -13 -13 -14 -14 -14 -14 -14 -13 -14 -14 -14 -14 -14
-17 -17 -17 -17 -17 -17 -17 -17 -17 -17 -17 -17 -17 -16 -16 -15 -15 -15 -14 -14 -14 -13 -13 -13 -13 -14 -14 -14 -14 -13 -13 -13 -12 -12 -13 -14 -14 -14 -13 -14 -14 -14 -14 -14
-17 -17 -17 -17 -17 -17 -17 -17 -17 -17 -17 -17 -17 -16 -15 -15 -15 -14 -14 -14 -14 -14 -14 -14 -14 -14 -14 -14 -14 -14 -14 -13 -13 -13 -14 -14 -14 -13 -13 -13 -14 -14 -14 -14
-17 -17 -17 -17 -17 -17 -17 -17 -17 -17 -17 -17 -16 -15 -15 -15 -15 -14 -13 -13 -13 -14 -14 -14 -14 -15 -14 -14 -14 -14 -14 -14 -14 -14 -13 -14 -14 -14 -14 -14 -14 -14 -14 -15
-17 -17 -17 -17 -16 -17 -16 -16 -17 -17 -17 -16 -16 -15 -15 -15 -16 -15 -14 -13 -14 -14 -14 -14 -14 -14 -14 -15 -14 -14 -14 -14 -14 -14 -13 -14 -14 -14 -15 -15 -15 -15 -15 -15
-17 -17 -17 -17 -16 -16 -16 -16 -16 -17 -16 -16 -16 -16 -15 -15 -16 -16 -16 -15 -15 -15 -16 -15 -14 -15 -15 -14 -14 -14 -14 -14 -14 -14 -14 -14 -14 -14 -15 -15 -15 -15 -15 -15
Height
5608 5602 5597 5598 5604 5610 5619 5628 5639 5651 5663 5675 5690 5702 5711 5725 5738 5749 5759 5771 5783 5794 5804 5812 5820 5826 5832 5838 5840 5842 5844 5847 5852 5854 5859 5864 5867 5869 5871 5872 5872 5871 5871 5869
5603 5598 5595 5594 5597 5603 5609 5619 5630 5640 5653 5666 5675 5685 5701 5714 5729 5739 5750 5763 5776 5787 5798 5806 5814 5821 5827 5832 5834 5833 5840 5846 5850 5855 5858 5861 5862 5864 5866 5867 5867 5865 5863 5862
5605 5601 5599 5598 5599 5602 5606 5616 5626 5636 5646 5658 5666 5677 5685 5708 5720 5729 5742 5757 5770 5782 5793 5802 5809 5816 5822 5827 5831 5834 5838 5843 5848 5851 5853 5858 5859 5859 5861 5862 5860 5858 5856 5854
5606 5601 5599 5599 5600 5603 5610 5618 5626 5630 5640 5649 5661 5679 5690 5702 5715 5725 5739 5754 5767 5777 5786 5794 5803 5810 5816 5821 5826 5830 5836 5840 5844 5848 5851 5852 5853 5855 5857 5855 5852 5851 5848 5846
5608 5602 5600 5598 5600 5603 5609 5618 5623 5628 5640 5655 5661 5673 5684 5696 5705 5720 5736 5750 5763 5773 5781 5790 5798 5804 5809 5815 5819 5825 5831 5837 5840 5843 5846 5848 5849 5848 5847 5847 5846 5843 5842 5840
5608 5604 5602 5601 5602 5603 5608 5618 5624 5630 5644 5653 5658 5675 5680 5690 5710 5723 5733 5744 5756 5767 5775 5784 5791 5797 5802 5808 5814 5820 5825 5831 5835 5838 5840 5842 5843 5842 5841 5839 5839 5837 5836 5832
5611 5608 5606 5606 5607 5609 5613 5619 5627 5637 5646 5655 5659 5671 5679 5694 5701 5715 5726 5737 5749 5759 5769 5778 5787 5793 5798 5804 5810 5815 5820 5826 5830 5833 5835 5835 5835 5834 5834 5832 5830 5827 5826 5823
5615 5614 5614 5611 5611 5613 5619 5625 5635 5644 5648 5653 5657 5666 5675 5685 5698 5710 5720 5730 5742 5752 5762 5772 5780 5788 5795 5801 5807 5811 5816 5820 5825 5827 5829 5828 5828 5828 5826 5824 5821 5817 5815 5812
5617 5616 5615 5616 5618 5619 5624 5623 5632 5636 5646 5655 5659 5666 5677 5684 5695 5705 5715 5726 5736 5746 5756 5765 5773 5781 5789 5796 5803 5808 5812 5816 5818 5820 5821 5821 5821 5820 5818 5815 5811 5808 5806 5802
5619 5617 5616 5616 5619 5621 5622 5630 5639 5641 5650 5659 5660 5670 5672 5681 5691 5701 5711 5721 5732 5740 5749 5759 5767 5776 5782 5790 5795 5801 5805 5808 5811 5813 5814 5814 5814 5812 5810 5807 5802 5799 5795 5792
5619 5619 5619 5618 5621 5622 5624 5630 5636 5642 5648 5657 5660 5667 5669 5679 5689 5698 5708 5717 5727 5737 5746 5755 5762 5769 5776 5782 5787 5792 5796 5799 5802 5805 5807 5807 5805 5803 5801 5797 5794 5790 5785 5784
5621 5621 5620 5621 5622 5624 5628 5635 5639 5647 5650 5653 5663 5664 5670 5679 5687 5696 5705 5714 5723 5732 5740 5749 5756 5763 5769 5775 5781 5785 5788 5792 5795 5798 5799 5799 5798 5796 5793 5788 5784 5780 5779 5777
5624 5623 5623 5624 5626 5627 5627 5633 5637 5641 5647 5654 5663 5662 5669 5677 5685 5693 5702 5710 5719 5727 5735 5742 5749 5756 5762 5769 5774 5778 5782 5786 5789 5790 5791 5790 5788 5786 5782 5778 5774 5774 5768 5768
5625 5625 5626 5628 5629 5630 5630 5633 5638 5644 5650 5656 5659 5663 5669 5676 5683 5691 5699 5707 5714 5723 5730 5737 5743 5749 5758 5764 5769 5772 5775 5778 5780 5781 5780 5780 5779 5776 5772 5771 5763 5761 5757 5756
5626 5626 5627 5627 5629 5630 5633 5637 5641 5645 5651 5656 5661 5663 5668 5675 5681 5687 5696 5704 5711 5717 5724 5731 5738 5747 5754 5759 5762 5765 5768 5771 5771 5772 5774 5773 5771 5768 5765 5765 5762 5753 5753 5750
5628 5625 5626 5628 5631 5632 5634 5638 5642 5647 5651 5656 5660 5663 5667 5673 5680 5686 5692 5699 5707 5714 5721 5726 5736 5742 5748 5751 5754 5758 5759 5760 5762 5764 5763 5764 5763 5760 5757 5756 5760 5753 5748 5746
5630 5629 5629 5630 5632 5635 5638 5640 5643 5648 5651 5655 5660 5663 5667 5672 5677 5684 5690 5696 5702 5708 5717 5725 5731 5737 5740 5743 5745 5748 5750 5753 5753 5754 5756 5755 5754 5751 5749 5749 5748 5744 5741 5740
5631 5631 5632 5632 5633 5636 5637 5640 5643 5647 5650 5654 5658 5662 5666 5670 5674 5681 5688 5694 5700 5706 5712 5718 5724 5728 5730 5734 5737 5740 5743 5745 5746 5747 5747 5747 5746 5743 5740 5738 5735 5738 5738 5737
5632 5631 5632 5633 5634 5636 5637 5639 5642 5646 5651 5653 5657 5661 5664 5669 5674 5680 5685 5692 5697 5703 5708 5713 5718 5721 5726 5730 5731 5734 5736 5739 5741 5741 5741 5739 5737 5738 5737 5736 5732 5731 5730 5729
5631 5631 5633 5633 5634 5635 5636 5639 5642 5645 5650 5653 5657 5661 5664 5668 5672 5677 5682 5688 5693 5698 5703 5708 5712 5716 5720 5723 5726 5729 5732 5733 5735 5735 5732 5731 5730 5731 5730 5729 5727 5727 5725 5724
5630 5631 5632 5633 5633 5634 5637 5639 5642 5646 5652 5652 5656 5659 5664 5667 5671 5674 5679 5684 5689 5694 5699 5703 5707 5712 5715 5719 5722 5725 5726 5726 5726 5725 5725 5726 5724 5725 5725 5721 5721 5721 5721 5720
5632 5631 5633 5632 5633 5635 5636 5639 5643 5646 5648 5650 5654 5657 5661 5664 5668 5672 5676 5680 5685 5689 5694 5699 5703 5707 5710 5713 5717 5718 5720 5721 5721 5719 5720 5720 5720 5720 5719 5718 5716 5715 5715 5714
5632 5632 5633 5634 5634 5635 5636 5638 5641 5644 5647 5649 5653 5655 5659 5662 5665 5669 5672 5675 5680 5685 5690 5694 5699 5703 5706 5709 5712 5712 5715 5716 5716 5716 5715 5716 5715 5714 5714 5714 5712 5712 5712 5712
5632 5632 5632 5633 5634 5634 5636 5637 5640 5643 5646 5649 5652 5654 5656 5659 5661 5664 5667 5671 5675 5680 5686 5689 5694 5697 5701 5704 5707 5710 5712 5712 5711 5711 5710 5709 5708 5709 5709 5710 5710 5709 5708 5707
5632 5631 5630 5631 5630 5632 5635 5637 5640 5641 5645 5647 5649 5650 5653 5653 5657 5659 5662 5666 5668 5671 5679 5684 5689 5693 5697 5700 5703 5706 5706 5707 5707 5706 5704 5703 5703 5704 5704 5706 5706 5705 5703 5701
5629 5630 5631 5630 5631 5631 5632 5635 5639 5641 5644 5646 5648 5649 5651 5653 5655 5657 5659 5659 5661 5667 5673 5679 5685 5690 5695 5698 5700 5700 5701 5703 5703 5702 5702 5702 5702 5701 5701 5701 5700 5699 5697 5697
Wind_Speed
30 29 26 26 34 39 45 46 50 53 55 55 61 67 74 72 65 62 60 59 60 58 58 56 50 50 50 41 40 44 55 50 28 28 31 30 32 26 20 28 33 35 35 37
17 9 9 14 19 23 39 33 37 47 53 56 62 68 73 70 65 62 59 59 58 57 57 56 51 49 49 48 46 45 32 32 32 33 33 35 36 29 25 30 34 39 37 41
18 7 5 11 8 17 27 31 32 34 48 56 62 66 74 67 64 63 61 58 56 55 53 54 52 48 44 41 40 38 41 41 41 38 40 27 24 31 30 33 38 38 37 37
14 9 11 6 7 13 19 23 21 30 37 54 60 59 68 62 64 62 59 56 54 53 50 50 52 47 44 41 39 33 32 35 40 37 37 28 28 31 36 40 35 32 31 35
18 10 3 8 11 20 28 28 18 30 37 37 51 42 56 60 63 61 58 54 53 51 49 45 49 45 43 43 41 39 29 32 37 36 30 32 36 36 33 29 27 28 31 35
23 2 5 7 13 24 28 22 22 25 28 32 36 46 37 59 57 57 55 52 50 51 49 44 48 44 46 48 48 38 35 36 38 38 36 41 37 29 26 26 29 28 30 34
17 11 14 13 14 23 12 15 21 21 26 24 32 41 21 52 53 53 54 51 48 49 48 44 45 50 49 47 45 35 37 36 37 40 42 37 24 20 19 22 25 30 28 32
10 7 8 12 18 17 27 18 21 19 23 23 33 41 33 51 51 51 52 51 47 46 46 44 43 47 51 49 44 42 41 39 40 37 27 22 22 25 28 28 29 27 31 33
7 4 2 10 17 22 15 9 19 16 24 20 34 31 43 45 47 50 50 48 44 44 44 45 44 42 42 43 43 45 45 41 34 26 22 23 26 28 31 32 30 29 35 40
9 5 3 10 13 20 26 15 21 21 19 18 27 31 30 39 44 47 48 48 46 45 44 43 42 41 40 35 34 32 33 30 27 24 24 27 28 31 33 35 37 36 41 46
9 6 5 9 9 18 27 23 24 23 29 14 22 22 34 38 40 44 44 45 45 45 43 42 41 40 37 36 32 31 28 28 27 27 29 28 31 34 38 40 40 42 46 48
5 6 7 7 13 19 18 18 16 9 23 21 21 24 30 36 38 40 40 41 43 43 43 41 39 39 36 33 31 29 29 30 30 29 28 31 34 37 39 44 44 46 33 46
6 7 7 8 9 18 29 27 28 17 26 16 12 27 31 34 36 37 38 39 40 41 40 39 37 35 34 32 30 31 31 31 28 28 32 36 38 39 43 46 46 51 44 51
3 6 9 10 10 14 21 23 23 21 13 17 11 24 30 32 34 35 36 36 36 37 37 38 36 35 31 30 29 30 30 29 29 33 37 40 40 43 44 40 48 44 51 38
3 2 5 9 14 15 16 16 20 20 16 18 12 21 28 32 34 33 34 38 37 34 33 32 32 32 31 30 31 30 29 30 36 39 38 39 42 44 47 42 48 45 24 25
3 13 9 9 13 14 15 16 18 21 21 19 20 20 23 30 34 35 34 33 37 38 36 34 31 31 30 31 31 31 34 37 38 38 40 40 42 46 50 44 41 45 31 28
2 8 8 11 10 13 13 14 14 13 14 18 16 20 22 24 29 35 36 36 33 32 29 28 29 28 29 31 33 35 38 38 39 42 42 43 45 48 53 43 48 31 29 32
2 2 2 6 6 12 15 15 18 19 18 18 16 18 18 21 25 28 33 35 35 36 34 32 30 29 32 33 35 37 37 37 33 35 40 42 45 48 43 44 33 30 24 19
5 3 4 4 8 9 15 17 17 17 19 20 17 15 15 18 27 31 28 32 34 34 34 34 33 31 34 36 36 32 34 34 35 36 40 43 39 38 29 21 13 8 12 19
6 5 4 6 8 9 12 17 19 23 22 20 17 14 15 17 19 23 34 36 34 35 37 38 37 40 42 38 33 34 33 34 33 32 26 19 22 26 22 18 15 20 21 25
5 4 4 5 8 8 18 22 22 24 22 26 23 19 17 19 22 22 23 26 33 36 34 35 35 34 36 35 33 33 34 38 36 28 20 20 16 22 20 20 16 16 21 21
7 8 11 4 8 11 16 20 22 19 23 26 25 22 24 25 24 24 22 23 27 29 28 28 29 32 32 31 34 30 32 34 32 27 19 22 22 24 25 22 21 19 19 20
8 3 7 6 5 13 16 20 22 21 21 21 23 20 19 24 22 25 28 28 29 28 28 30 30 31 29 32 35 23 28 24 20 23 19 19 21 14 15 13 14 14 15 16
4 5 6 5 9 12 17 18 19 22 23 24 19 19 20 25 26 26 28 32 35 34 31 29 33 36 26 23 23 22 21 16 14 15 25 24 24 17 16 11 14 14 16 17
11 11 12 10 1 15 19 19 17 24 24 25 23 22 18 30 26 24 26 28 31 37 38 31 36 36 28 24 22 19 13 12 12 9 8 14 19 15 12 13 15 16 16 19
16 15 13 10 9 13 21 21 20 24 27 24 22 17 14 22 18 20 15 23 24 36 31 26 26 23 23 21 17 14 12 11 9 8 9 10 13 14 15 16 16 17 18 19
Wind_Direction
297 289 272 251 235 238 229 229 230 228 220 216 211 209 213 214 211 210 212 210 213 213 215 218 217 219 224 228 235 243 227 227 249 239 234 229 230 239 266 268 278 286 289 294
326 323 278 220 203 215 218 223 222 222 217 213 209 208 210 210 209 208 211 210 209 213 213 218 220 221 224 227 238 253 246 255 239 229 228 232 243 269 271 278 289 290 289 292
351 298 341 223 230 221 217 213 221 218 212 208 208 206 208 207 207 207 209 210 207 211 214 216 219 222 223 230 236 240 241 244 248 234 242 259 263 266 274 283 291 294 299 298
350 296 291 237 203 207 188 191 186 201 201 205 204 206 206 205 206 207 209 211 207 208 211 213 217 221 223 228 233 235 235 243 241 246 246 267 266 272 285 287 292 295 296 300
331 307 298 144 151 156 166 176 188 200 195 194 201 194 212 204 204 204 207 207 207 208 211 210 212 214 216 221 220 223 227 239 238 244 250 254 276 283 284 287 290 299 298 300
14 31 87 121 143 177 166 172 176 183 186 195 202 191 213 203 201 204 205 207 205 207 210 209 203 207 217 222 221 218 223 231 235 245 250 273 285 282 286 288 293 295 294 301
24 58 107 112 139 175 166 144 157 165 185 193 193 183 196 197 198 198 201 205 205 206 209 211 207 209 216 226 235 239 243 234 241 250 264 275 276 289 295 299 296 304 293 291
33 45 92 124 140 160 149 151 140 176 173 183 187 181 198 194 193 194 197 203 205 206 207 209 212 211 218 223 231 237 241 248 255 264 258 263 274 287 295 298 299 290 280 276
28 22 127 166 139 172 152 171 156 148 163 191 181 182 193 194 193 193 196 199 202 205 208 209 211 217 220 223 228 234 241 248 249 245 252 266 280 287 293 294 291 286 274 268
35 41 71 178 176 162 167 168 157 142 159 166 176 177 203 194 190 193 194 196 200 204 208 207 211 216 221 224 228 231 234 238 239 242 255 268 280 286 291 292 293 288 274 273
44 65 107 142 162 167 151 171 154 164 152 173 177 179 184 191 192 190 194 195 198 204 209 210 211 217 221 224 225 227 231 231 236 246 256 271 281 289 294 291 288 276 276 278
51 87 125 148 157 169 158 159 160 165 161 159 163 189 182 186 191 192 195 198 198 203 209 211 212 216 219 218 218 220 223 232 241 252 266 275 281 288 289 286 283 274 262 278
61 94 112 126 165 170 159 174 169 166 164 156 169 179 180 183 187 193 192 194 197 202 207 211 213 212 213 215 210 218 229 238 250 264 272 277 281 285 285 285 281 275 268 273
7 66 136 151 176 178 161 168 173 169 165 161 155 176 183 185 188 192 191 192 198 201 202 205 210 211 210 209 221 228 238 251 261 265 268 276 285 286 284 290 287 283 266 252
336 309 94 175 155 169 168 179 188 183 179 158 183 180 185 186 191 195 195 190 195 198 200 201 199 200 208 217 224 232 243 253 259 264 273 279 281 281 282 279 265 253 251 256
352 51 137 138 160 161 169 172 181 191 185 176 180 186 186 192 193 198 199 201 199 197 198 202 204 211 216 221 227 239 247 254 263 271 272 275 274 275 276 277 257 261 273 258
73 48 76 106 135 168 170 174 179 172 175 180 179 192 193 196 198 199 201 205 207 210 213 213 216 223 227 230 237 245 254 264 271 274 278 277 280 279 277 277 271 248 252 256
205 260 47 123 101 155 204 182 169 163 160 176 184 184 188 198 207 201 201 204 208 213 215 218 222 225 233 241 250 259 267 267 265 268 272 275 277 287 291 276 252 248 255 261
254 201 155 163 147 189 178 181 183 179 169 170 178 179 185 194 202 211 212 204 207 212 214 217 221 229 237 246 250 249 250 258 261 264 269 271 272 280 263 262 292 281 242 255
230 190 180 188 179 162 162 157 161 163 163 158 166 181 185 193 207 212 210 216 216 215 216 221 228 236 241 241 239 247 258 255 258 254 256 270 287 277 265 282 267 277 280 278
171 180 218 245 206 166 173 171 163 170 173 174 179 188 196 204 209 213 222 227 225 226 232 236 242 247 248 243 239 240 241 244 252 282 288 270 278 248 252 233 237 277 283 286
159 153 162 177 184 174 181 182 189 178 181 181 182 190 198 198 201 203 203 209 217 223 221 223 230 224 227 233 237 238 248 257 263 268 259 256 240 245 252 245 274 291 292 295
169 231 222 180 165 179 186 192 195 193 185 166 170 182 185 195 204 209 206 205 203 209 211 218 224 226 231 242 247 243 253 258 252 249 243 246 240 241 243 258 272 278 276 282
239 215 285 182 203 186 189 180 175 181 175 173 183 188 203 207 215 216 211 214 218 218 220 222 219 223 230 228 244 237 237 238 241 256 252 240 233 230 235 252 266 274 279 283
250 262 287 287 247 192 190 193 184 178 183 181 190 198 202 183 187 202 200 206 196 211 216 211 213 220 221 232 224 220 231 234 238 255 292 260 232 254 280 280 268 268 275 281
244 248 268 284 205 190 198 192 188 186 187 189 197 213 192 166 163 148 150 164 159 189 181 177 195 207 208 210 213 227 236 250 255 268 265 251 248 255 263 267 272 278 281 285